User: anonymous   Login
Location: Unspecified
(47.8330°N, 0.0000°E)
Time: 00:39:01
(UTC+00:00)
Language:

CUBEBUG 2 - Orbit

View from above orbital plane
View from above orbital plane
View from above satellite
View from above satellite

Ground track
Ground track

The orbit data is extracted from the following two-line orbital elements,

1 39440U 13066AA  19230.90503979 +.00000091 +00000-0 +19871-4 0  9993
2 39440 097.6046 225.7361 0078748 245.7183 113.5787 14.75873954307807
Epoch (UTC): 18 August 2019 21:43:15
Eccentricity: 0.0078748
inclination: 97.6046°
perigee height: 587 km
apogee height: 697 km
right ascension of ascending node: 225.7361°
argument of perigee: 245.7183°
revolutions per day: 14.75873954
mean anomaly at epoch: 113.5787°
orbit number at epoch: 30780

The dashed part of the orbit path shows where the satellite is in the earth's shadow,  

DLR